Miscellaneous Local Product
Issued by NWS Hastings, NE

Home | Current Version | Previous Version | Text Only | Print | Product List | Glossary On
Versions: 1 2 3 4 5 6 7 8 9 10 11 12 13 14 15 16 17 18 19 20 21 22 23 24 25 26 27 28 29 30 31 32 33 34 35 36 37 38 39 40 41 42 43 44 45 46 47 48 49 50
000
AXUS43 KGID 240802
MISGRI

GID CWA HOURLY WEATHER ROUNDUP
NATIONAL WEATHER SERVICE HASTINGS NE
300 AM CDT WED AUG 24 2016

NOTE: "FAIR" INDICATES FEW OR NO CLOUDS BELOW 12,000 FEET WITH NO
SIGNIFICANT WEATHER AND/OR OBSTRUCTIONS TO VISIBILITY.

...SOUTH CENTRAL NEBRASKA...

CITY           SKY/WX    TMP DP  RH WIND       PRES   REMARKS
GRAND ISLAND   CLEAR     65  58  78 N12       29.93S
HASTINGS       PTCLDY    67  58  72 N8        29.94R
KEARNEY        CLOUDY   N/A N/A N/A N9        29.94S
ORD            CLEAR     60  50  69 NW7       29.96R
YORK           MOCLDY    66  64  94 SE8       29.94R
AURORA         CLEAR     68  68 100 NE5       29.93R FOG
LEXINGTON      CLOUDY    58  51  78 NW8       29.99R
HOLDREGE       CLOUDY    63  55  73 N8        29.95F
HEBRON         PTCLDY    71  69  93 NE5       29.92R

...NEBRASKA PANHANDLE...

CITY           SKY/WX    TMP DP  RH WIND       PRES   REMARKS
CHADRON        PTCLDY    47  34  60 CALM      30.10R
ALLIANCE       PTCLDY    50  46  86 CALM      30.10R
SCOTTSBLUFF    CLOUDY    56  47  71 E5        30.10R
SIDNEY         CLOUDY    57  46  66 NW7       30.14R

...WESTERN AND NORTH CENTRAL NEBRASKA...

CITY           SKY/WX    TMP DP  RH WIND       PRES   REMARKS
VALENTINE      CLEAR     53  40  61 NW9       30.04R
AINSWORTH      CLEAR     53  46  78 W9        30.03R
ONEILL         CLEAR     59  49  69 NW6       29.97R
BROKEN BOW     CLEAR     55  49  80 NW6       30.01R
IMPERIAL       CLOUDY    60  48  64 N8        30.06R
NORTH PLATTE   CLOUDY    54  47  77 NW5       30.06R
MCCOOK         CLOUDY    64  49  57 N12       29.99R

...EASTERN NEBRASKA...

CITY           SKY/WX    TMP DP  RH WIND       PRES   REMARKS
NORFOLK        CLEAR     66  59  78 W8        29.91R
SO SIOUX CITY  PTCLDY    68  64  87 S8        29.87R
TEKAMAH        CLOUDY    68  64  87 W9        29.88R
COLUMBUS       CLEAR     64  57  77 CALM      29.94R
ALBION         CLEAR     63  58  83 CALM      29.94S
OMAHA EPPLEY   CLOUDY    68  63  84 SE7       29.89R
OFFUTT AFB     CLEAR     66  66 100 E12       29.88F
MILLARD        CLOUDY    67  64  89 SE8       29.89R
LINCOLN        CLOUDY    69  63  81 S10       29.93R
NEBRASKA CITY  RAIN      65  65 100 SW12      29.94F
BEATRICE       CLOUDY    67  62  85 E14       29.96R
FALLS CITY     TSTM      65  64  97 NE5       29.99R FOG

...NORTHERN KANSAS...

CITY           SKY/WX    TMP DP  RH WIND       PRES   REMARKS
GOODLAND       MOCLDY    61  51  70 W13       30.07R
HILL CITY      CLOUDY    71  55  56 E5        29.96R
NORTON         SUNNY     68  46  45 N9        29.94S
SMITH CENTER   CLEAR     73  57  56 N21       29.89S
BELOIT         CLEAR     72  66  83 S7        29.86S
HAYS           CLOUDY    73  57  56 NW8       29.94R
RUSSELL        PTCLDY    72  65  78 S9        29.91R
CONCORDIA      PTCLDY    75  69  81 S9        29.88R
SALINA         CLOUDY    80  67  64 SW16      29.90R
TOPEKA         MOCLDY    74  69  85 CALM      29.94R



USA.gov is the U.S. government's official web portal to all federal, state and local government web resources and services.